JAY-D2

导读

JAY-D2是美国于2025年1月14日发射的一颗卫星。当前公开可查信息中暂未披露该卫星的详细任务目标与技术参数,结合2025年美国航天发射布局推测,它可能服务于对地观测、技术验证或太空态势感知等领域。作为美国2025年早期航天发射任务的组成部分,该卫星的入轨将进一步补充美国太空资产布局,延续美国在航天领域的活跃探索态势。

Basic Information
目录编号:
62665
目录名称:
JAY-D2
国际标识:
2025-009BJ
轨道中心:
EARTH
卫星名称:
JAY-D2
卫星全名:
JAY-D2
卫星状态:
在轨 (已飞行598 天)
发射日期:
2025-01-14 UTC
国别 :
加拿大 (CA)
星等 :
--
Orbit Information
数据来源 国际轨道数据
星历时间: 2026-09-04T13:51:43+0800
9小时前
查看轨道信息
半长轴: 6875.493km
偏心率: 0.0005708
轨道倾角: 97.383°
近地点辐角 64.685°
升交点赤经 324.397°
平近点角 295.498°
近地点: 493.431km
远地点: 501.281km
周期: 94.562分钟
每日圈数: 15.228147
Detailed Information
使用方式:
暂无
2D Orbit Map
3D Orbit Map
Orbit Altitude Analysis Chart
Orbit Inclination Analysis Chart
Orbit Comprehensive Analysis Chart
View Comprehensive Chart
Conjunction Data List
Event ID Objects TCA Miss Dist (km) Collision Risk Probability Collision Risk Index (CRI) Action
CDM_260905-132906-266506-348922
JAY-D2 (62665)
HERMES-6 (63489)
2026-09-05T
13:29:48+0000
0.631 km
远距离
1.164709E-4 高风险 0.76
CDM_260905-072906-047506-266522
JAY-D2 (62665)
2026-09-05T
07:29:12+0000
1.863 km
极远距离
5.501709E-7 极低风险 0.3